contact:dominique.lefevre@mio.osupytheas.fr, maurice.libes@osupytheas.fr, didier.mallarino@osupytheas.fr
Project:EMSO http://www.emso-fr.org/EMSO-France
Depth: 2436.0 m
Title:EMSO Ligure Ouest : Data MII capteur MICROCAT
DateTime_Computer,Latitude,Longitude,Temperature,Conductivity,Pressure,DateTime_Instrument
DateTime_Computer,Latitude,Longitude,degC,S m-1,dbar,DateTime_Instrument
2019-09-21T00:00:15Z,42.805,6.029,13.2976,4.59988,2469.914,2019-9-21T02:00:39Z
2019-09-21T00:03:19Z,42.805,6.029,13.2972,4.59991,2469.937,2019-9-21T02:03:42Z
2019-09-21T00:06:22Z,42.805,6.029,13.2982,4.59983,2469.9,2019-9-21T02:06:45Z
2019-09-21T00:09:25Z,42.805,6.029,13.2982,4.59991,2469.9,2019-9-21T02:09:49Z
2019-09-21T00:12:28Z,42.805,6.029,13.2985,4.59995,2469.9,2019-9-21T02:12:52Z
2019-09-21T00:15:32Z,42.805,6.029,13.2983,4.59984,2469.876,2019-9-21T02:15:55Z
2019-09-21T00:18:35Z,42.805,6.029,13.2983,4.59988,2469.914,2019-9-21T02:18:58Z
2019-09-21T00:21:38Z,42.805,6.029,13.2982,4.59975,2469.876,2019-9-21T02:22:02Z
2019-09-21T00:24:41Z,42.805,6.029,13.2976,4.59978,2469.914,2019-9-21T02:25:05Z
2019-09-21T00:27:44Z,42.805,6.029,13.3001,4.59977,2469.923,2019-9-21T02:28:08Z
2019-09-21T00:30:48Z,42.805,6.029,13.2979,4.59972,2469.914,2019-9-21T02:31:11Z
2019-09-21T00:33:51Z,42.805,6.029,13.2983,4.59980,2469.876,2019-9-21T02:34:14Z
2019-09-21T00:36:54Z,42.805,6.029,13.2990,4.59992,2469.914,2019-9-21T02:37:18Z
2019-09-21T00:39:57Z,42.805,6.029,13.2991,4.59992,2469.914,2019-9-21T02:40:21Z
2019-09-21T00:43:01Z,42.805,6.029,13.2982,4.60026,2469.89,2019-9-21T02:43:24Z
2019-09-21T00:46:04Z,42.805,6.029,13.2981,4.59978,2469.9,2019-9-21T02:46:27Z
2019-09-21T00:49:07Z,42.805,6.029,13.2989,4.59983,2469.9,2019-9-21T02:49:31Z
2019-09-21T00:52:10Z,42.805,6.029,13.2990,4.59984,2469.876,2019-9-21T02:52:34Z
2019-09-21T00:55:13Z,42.805,6.029,13.2990,4.59978,2469.853,2019-9-21T02:55:37Z
2019-09-21T00:58:17Z,42.805,6.029,13.2988,4.59982,2469.9,2019-9-21T02:58:40Z
2019-09-21T01:01:20Z,42.805,6.029,13.2979,4.59981,2469.914,2019-9-21T03:01:43Z
2019-09-21T01:04:23Z,42.805,6.029,13.2991,4.59981,2469.9,2019-9-21T03:04:47Z
2019-09-21T01:07:26Z,42.805,6.029,13.2986,4.59996,2469.853,2019-9-21T03:07:50Z
2019-09-21T01:10:30Z,42.805,6.029,13.2976,4.59988,2469.876,2019-9-21T03:10:53Z
2019-09-21T01:13:33Z,42.805,6.029,13.2980,4.59999,2469.923,2019-9-21T03:13:56Z
2019-09-21T01:16:36Z,42.805,6.029,13.2993,4.60002,2469.914,2019-9-21T03:17:00Z
2019-09-21T01:19:39Z,42.805,6.029,13.2986,4.59983,2469.9,2019-9-21T03:20:03Z
2019-09-21T01:22:43Z,42.805,6.029,13.2996,4.59983,2469.853,2019-9-21T03:23:06Z
2019-09-21T01:25:46Z,42.805,6.029,13.2990,4.60009,2469.876,2019-9-21T03:26:09Z
2019-09-21T01:28:49Z,42.805,6.029,13.3000,4.59999,2469.89,2019-9-21T03:29:12Z
2019-09-21T01:31:52Z,42.805,6.029,13.2982,4.59992,2469.9,2019-9-21T03:32:16Z
2019-09-21T01:34:55Z,42.805,6.029,13.3002,4.60000,2469.867,2019-9-21T03:35:19Z
2019-09-21T01:37:59Z,42.805,6.029,13.2995,4.59999,2469.89,2019-9-21T03:38:22Z
2019-09-21T01:41:02Z,42.805,6.029,13.3015,4.60004,2469.914,2019-9-21T03:41:25Z
2019-09-21T01:44:05Z,42.805,6.029,13.2983,4.59981,2469.914,2019-9-21T03:44:29Z
2019-09-21T01:47:08Z,42.805,6.029,13.2998,4.59988,2469.89,2019-9-21T03:47:32Z
2019-09-21T01:50:12Z,42.805,6.029,13.2982,4.59970,2469.876,2019-9-21T03:50:35Z
2019-09-21T01:53:15Z,42.805,6.029,13.2967,4.60010,2469.853,2019-9-21T03:53:38Z
2019-09-21T01:56:18Z,42.805,6.029,13.2975,4.59984,2469.876,2019-9-21T03:56:41Z
2019-09-21T01:59:21Z,42.805,6.029,13.2985,4.60009,2469.867,2019-9-21T03:59:45Z
2019-09-21T02:02:24Z,42.805,6.029,13.2990,4.60013,2469.853,2019-9-21T04:02:48Z
2019-09-21T02:05:28Z,42.805,6.029,13.2982,4.59976,2469.914,2019-9-21T04:05:51Z
2019-09-21T02:08:31Z,42.805,6.029,13.2974,4.59998,2469.867,2019-9-21T04:08:54Z
2019-09-21T02:11:34Z,42.805,6.029,13.2976,4.60020,2469.876,2019-9-21T04:11:58Z
2019-09-21T02:14:37Z,42.805,6.029,13.2968,4.60022,2469.876,2019-9-21T04:15:01Z
2019-09-21T02:17:41Z,42.805,6.029,13.2980,4.60010,2469.853,2019-9-21T04:18:04Z
2019-09-21T02:20:44Z,42.805,6.029,13.2984,4.59977,2469.867,2019-9-21T04:21:07Z
2019-09-21T02:23:47Z,42.805,6.029,13.2983,4.59984,2469.867,2019-9-21T04:24:11Z
2019-09-21T02:26:50Z,42.805,6.029,13.2975,4.59996,2469.914,2019-9-21T04:27:14Z
2019-09-21T02:29:54Z,42.805,6.029,13.2984,4.60010,2469.83,2019-9-21T04:30:17Z
2019-09-21T02:32:57Z,42.805,6.029,13.2981,4.59987,2469.83,2019-9-21T04:33:20Z
2019-09-21T02:36:00Z,42.805,6.029,13.3002,4.60041,2469.89,2019-9-21T04:36:24Z
2019-09-21T02:39:03Z,42.805,6.029,13.3006,4.59978,2469.844,2019-9-21T04:39:27Z
2019-09-21T02:42:07Z,42.805,6.029,13.2996,4.60005,2469.867,2019-9-21T04:42:30Z
2019-09-21T02:45:10Z,42.805,6.029,13.2994,4.59988,2469.853,2019-9-21T04:45:33Z
2019-09-21T02:48:13Z,42.805,6.029,13.2998,4.59977,2469.83,2019-9-21T04:48:37Z
2019-09-21T02:51:16Z,42.805,6.029,13.2993,4.59992,2469.876,2019-9-21T04:51:40Z
2019-09-21T02:54:19Z,42.805,6.029,13.2998,4.59990,2469.867,2019-9-21T04:54:43Z
2019-09-21T02:57:23Z,42.805,6.029,13.3006,4.59996,2469.876,2019-9-21T04:57:46Z
2019-09-21T03:00:26Z,42.805,6.029,13.3008,4.59981,2469.853,2019-9-21T05:00:50Z
2019-09-21T03:03:29Z,42.805,6.029,13.2979,4.60015,2469.867,2019-9-21T05:03:53Z
2019-09-21T03:06:33Z,42.805,6.029,13.2998,4.59997,2469.844,2019-9-21T05:06:56Z
2019-09-21T03:09:36Z,42.805,6.029,13.2996,4.60009,2469.844,2019-9-21T05:09:59Z
2019-09-21T03:12:39Z,42.805,6.029,13.2994,4.59981,2469.844,2019-9-21T05:13:03Z
2019-09-21T03:15:42Z,42.805,6.029,13.3004,4.60037,2469.867,2019-9-21T05:16:06Z
2019-09-21T03:18:45Z,42.805,6.029,13.3028,4.60019,2469.867,2019-9-21T05:19:09Z
2019-09-21T03:21:49Z,42.805,6.029,13.2986,4.60026,2469.83,2019-9-21T05:22:12Z
2019-09-21T03:24:52Z,42.805,6.029,13.2979,4.60053,2469.844,2019-9-21T05:25:15Z
2019-09-21T03:27:55Z,42.805,6.029,13.3004,4.59999,2469.844,2019-9-21T05:28:19Z
2019-09-21T03:30:58Z,42.805,6.029,13.3009,4.60025,2469.821,2019-9-21T05:31:22Z
2019-09-21T03:34:02Z,42.805,6.029,13.2991,4.59988,2469.83,2019-9-21T05:34:25Z
2019-09-21T03:37:05Z,42.805,6.029,13.3006,4.60026,2469.853,2019-9-21T05:37:28Z
2019-09-21T03:40:08Z,42.805,6.029,13.2991,4.59999,2469.844,2019-9-21T05:40:32Z
2019-09-21T03:43:11Z,42.805,6.029,13.2998,4.60014,2469.844,2019-9-21T05:43:35Z
2019-09-21T03:46:14Z,42.805,6.029,13.3006,4.59986,2469.797,2019-9-21T05:46:38Z
2019-09-21T03:49:18Z,42.805,6.029,13.2992,4.59988,2469.806,2019-9-21T05:49:41Z
2019-09-21T03:52:21Z,42.805,6.029,13.2995,4.60007,2469.83,2019-9-21T05:52:44Z
2019-09-21T03:55:24Z,42.805,6.029,13.3000,4.60017,2469.797,2019-9-21T05:55:48Z
2019-09-21T03:58:28Z,42.805,6.029,13.3005,4.60031,2469.821,2019-9-21T05:58:51Z
2019-09-21T04:01:31Z,42.805,6.029,13.2990,4.60049,2469.83,2019-9-21T06:01:54Z
2019-09-21T04:04:34Z,42.805,6.029,13.2988,4.60084,2469.844,2019-9-21T06:04:57Z
2019-09-21T04:07:37Z,42.805,6.029,13.2975,4.60031,2469.853,2019-9-21T06:08:01Z
2019-09-21T04:10:40Z,42.805,6.029,13.3036,4.60032,2469.783,2019-9-21T06:11:04Z
2019-09-21T04:13:43Z,42.805,6.029,13.3020,4.60055,2469.821,2019-9-21T06:14:07Z
2019-09-21T04:16:47Z,42.805,6.029,13.3034,4.60041,2469.834,2019-9-21T06:17:10Z
2019-09-21T04:19:50Z,42.805,6.029,13.3004,4.60014,2469.806,2019-9-21T06:20:13Z
2019-09-21T04:22:53Z,42.805,6.029,13.2974,4.59998,2469.844,2019-9-21T06:23:16Z
2019-09-21T04:25:56Z,42.805,6.029,13.2993,4.59985,2469.821,2019-9-21T06:26:20Z
2019-09-21T04:28:59Z,42.805,6.029,13.3006,4.60041,2469.783,2019-9-21T06:29:23Z
2019-09-21T04:32:03Z,42.805,6.029,13.2983,4.60025,2469.821,2019-9-21T06:32:26Z
2019-09-21T04:35:06Z,42.805,6.029,13.3006,4.60067,2469.821,2019-9-21T06:35:29Z
2019-09-21T04:38:09Z,42.805,6.029,13.3025,4.60028,2469.844,2019-9-21T06:38:33Z
2019-09-21T04:41:12Z,42.805,6.029,13.3011,4.60049,2469.806,2019-9-21T06:41:36Z
2019-09-21T04:44:15Z,42.805,6.029,13.3019,4.60009,2469.821,2019-9-21T06:44:39Z
2019-09-21T04:47:19Z,42.805,6.029,13.3030,4.60048,2469.806,2019-9-21T06:47:42Z
2019-09-21T04:50:22Z,42.805,6.029,13.3031,4.60020,2469.76,2019-9-21T06:50:45Z
2019-09-21T04:53:25Z,42.805,6.029,13.3000,4.60025,2469.797,2019-9-21T06:53:49Z
2019-09-21T04:56:28Z,42.805,6.029,13.3001,4.60039,2469.821,2019-9-21T06:56:52Z
2019-09-21T04:59:31Z,42.805,6.029,13.2998,4.60006,2469.821,2019-9-21T06:59:55Z
2019-09-21T05:02:35Z,42.805,6.029,13.3011,4.60049,2469.797,2019-9-21T07:02:58Z
2019-09-21T05:05:38Z,42.805,6.029,13.3014,4.60059,2469.821,2019-9-21T07:06:01Z
2019-09-21T05:08:41Z,42.805,6.029,13.3030,4.60066,2469.797,2019-9-21T07:09:05Z
2019-09-21T05:11:44Z,42.805,6.029,13.3029,4.60032,2469.821,2019-9-21T07:12:08Z
2019-09-21T05:14:47Z,42.805,6.029,13.3042,4.60035,2469.797,2019-9-21T07:15:11Z
2019-09-21T05:17:51Z,42.805,6.029,13.3019,4.60027,2469.783,2019-9-21T07:18:14Z
2019-09-21T05:20:54Z,42.805,6.029,13.3027,4.60038,2469.821,2019-9-21T07:21:17Z
2019-09-21T05:23:57Z,42.805,6.029,13.3020,4.60029,2469.83,2019-9-21T07:24:20Z
2019-09-21T05:27:00Z,42.805,6.029,13.2992,4.60021,2469.797,2019-9-21T07:27:24Z
2019-09-21T05:30:03Z,42.805,6.029,13.2983,4.60044,2469.76,2019-9-21T07:30:27Z
2019-09-21T05:33:07Z,42.805,6.029,13.2997,4.60019,2469.797,2019-9-21T07:33:30Z
2019-09-21T05:36:10Z,42.805,6.029,13.2990,4.60025,2469.783,2019-9-21T07:36:33Z
2019-09-21T05:39:13Z,42.805,6.029,13.3015,4.60032,2469.83,2019-9-21T07:39:37Z
2019-09-21T05:42:16Z,42.805,6.029,13.3004,4.60003,2469.773,2019-9-21T07:42:40Z
2019-09-21T05:45:19Z,42.805,6.029,13.2993,4.59982,2469.806,2019-9-21T07:45:43Z
2019-09-21T05:48:23Z,42.805,6.029,13.3002,4.59994,2469.806,2019-9-21T07:48:46Z
2019-09-21T05:51:26Z,42.805,6.029,13.2986,4.59994,2469.821,2019-9-21T07:51:49Z
2019-09-21T05:54:29Z,42.805,6.029,13.3006,4.60045,2469.844,2019-9-21T07:54:53Z
2019-09-21T05:57:32Z,42.805,6.029,13.2988,4.60003,2469.806,2019-9-21T07:57:56Z
2019-09-21T06:00:36Z,42.805,6.029,13.2987,4.59990,2469.821,2019-9-21T08:00:59Z
2019-09-21T06:03:39Z,42.805,6.029,13.2997,4.59998,2469.806,2019-9-21T08:04:02Z
2019-09-21T06:06:42Z,42.805,6.029,13.2993,4.59995,2469.806,2019-9-21T08:07:05Z
2019-09-21T06:09:45Z,42.805,6.029,13.2991,4.60007,2469.783,2019-9-21T08:10:09Z
2019-09-21T06:12:48Z,42.805,6.029,13.2979,4.59978,2469.806,2019-9-21T08:13:12Z
2019-09-21T06:15:52Z,42.805,6.029,13.2974,4.59971,2469.821,2019-9-21T08:16:15Z
2019-09-21T06:18:55Z,42.805,6.029,13.2977,4.59989,2469.821,2019-9-21T08:19:18Z
2019-09-21T06:21:58Z,42.805,6.029,13.2982,4.59980,2469.806,2019-9-21T08:22:22Z
2019-09-21T06:25:01Z,42.805,6.029,13.2987,4.59970,2469.821,2019-9-21T08:25:25Z
2019-09-21T06:28:05Z,42.805,6.029,13.2976,4.59968,2469.83,2019-9-21T08:28:28Z
2019-09-21T06:31:08Z,42.805,6.029,13.2982,4.59973,2469.844,2019-9-21T08:31:31Z
2019-09-21T06:34:11Z,42.805,6.029,13.2980,4.59985,2469.821,2019-9-21T08:34:34Z
2019-09-21T06:37:14Z,42.805,6.029,13.2976,4.59991,2469.83,2019-9-21T08:37:38Z
2019-09-21T06:40:17Z,42.805,6.029,13.2985,4.59991,2469.844,2019-9-21T08:40:41Z
2019-09-21T06:43:21Z,42.805,6.029,13.2977,4.59994,2469.83,2019-9-21T08:43:44Z
2019-09-21T06:46:24Z,42.805,6.029,13.2988,4.59989,2469.806,2019-9-21T08:46:47Z
2019-09-21T06:49:27Z,42.805,6.029,13.2992,4.59979,2469.853,2019-9-21T08:49:50Z
2019-09-21T06:52:30Z,42.805,6.029,13.2988,4.59988,2469.806,2019-9-21T08:52:54Z
2019-09-21T06:55:33Z,42.805,6.029,13.2983,4.59988,2469.821,2019-9-21T08:55:57Z
2019-09-21T06:58:36Z,42.805,6.029,13.2974,4.59985,2469.844,2019-9-21T08:59:00Z
2019-09-21T07:01:40Z,42.805,6.029,13.2979,4.59989,2469.806,2019-9-21T09:02:03Z
2019-09-21T07:04:43Z,42.805,6.029,13.2974,4.59972,2469.83,2019-9-21T09:05:06Z
2019-09-21T07:07:46Z,42.805,6.029,13.2974,4.59982,2469.83,2019-9-21T09:08:10Z
2019-09-21T07:10:49Z,42.805,6.029,13.2988,4.59983,2469.83,2019-9-21T09:11:13Z
2019-09-21T07:13:52Z,42.805,6.029,13.2986,4.59978,2469.83,2019-9-21T09:14:16Z
2019-09-21T07:16:56Z,42.805,6.029,13.2978,4.59975,2469.806,2019-9-21T09:17:19Z
2019-09-21T07:19:59Z,42.805,6.029,13.2977,4.59974,2469.844,2019-9-21T09:20:23Z
2019-09-21T07:23:02Z,42.805,6.029,13.2986,4.59982,2469.83,2019-9-21T09:23:26Z
2019-09-21T07:26:05Z,42.805,6.029,13.2969,4.59975,2469.83,2019-9-21T09:26:29Z
2019-09-21T07:29:09Z,42.805,6.029,13.2979,4.59983,2469.83,2019-9-21T09:29:32Z
2019-09-21T07:32:12Z,42.805,6.029,13.2979,4.59978,2469.9,2019-9-21T09:32:35Z
2019-09-21T07:35:15Z,42.805,6.029,13.2982,4.59966,2469.853,2019-9-21T09:35:38Z
2019-09-21T07:38:18Z,42.805,6.029,13.2982,4.59967,2469.867,2019-9-21T09:38:42Z
2019-09-21T07:41:21Z,42.805,6.029,13.2981,4.59978,2469.867,2019-9-21T09:41:45Z
2019-09-21T07:44:25Z,42.805,6.029,13.2978,4.59975,2469.867,2019-9-21T09:44:48Z
2019-09-21T07:47:28Z,42.805,6.029,13.2979,4.59976,2469.867,2019-9-21T09:47:51Z
2019-09-21T07:50:31Z,42.805,6.029,13.2983,4.59979,2469.844,2019-9-21T09:50:55Z
2019-09-21T07:53:34Z,42.805,6.029,13.2977,4.59971,2469.89,2019-9-21T09:53:58Z
2019-09-21T07:56:37Z,42.805,6.029,13.2973,4.59973,2469.867,2019-9-21T09:57:01Z
2019-09-21T07:59:41Z,42.805,6.029,13.2983,4.59986,2469.876,2019-9-21T10:00:04Z
2019-09-21T08:02:44Z,42.805,6.029,13.2986,4.59978,2469.867,2019-9-21T10:03:07Z
2019-09-21T08:05:47Z,42.805,6.029,13.2996,4.59971,2469.9,2019-9-21T10:06:10Z
2019-09-21T08:08:50Z,42.805,6.029,13.2985,4.59973,2469.89,2019-9-21T10:09:14Z
2019-09-21T08:11:53Z,42.805,6.029,13.2976,4.59983,2469.867,2019-9-21T10:12:17Z
2019-09-21T08:14:57Z,42.805,6.029,13.2976,4.59976,2469.853,2019-9-21T10:15:20Z
2019-09-21T08:18:00Z,42.805,6.029,13.2990,4.59968,2469.876,2019-9-21T10:18:23Z
2019-09-21T08:21:03Z,42.805,6.029,13.2985,4.59979,2469.867,2019-9-21T10:21:27Z
2019-09-21T08:24:06Z,42.805,6.029,13.2975,4.59976,2469.853,2019-9-21T10:24:30Z
2019-09-21T08:27:09Z,42.805,6.029,13.2988,4.59976,2469.89,2019-9-21T10:27:33Z
2019-09-21T08:30:13Z,42.805,6.029,13.2984,4.59975,2469.876,2019-9-21T10:30:36Z
2019-09-21T08:33:16Z,42.805,6.029,13.2987,4.59976,2469.914,2019-9-21T10:33:39Z
2019-09-21T08:36:19Z,42.805,6.029,13.2987,4.59981,2469.89,2019-9-21T10:36:43Z
2019-09-21T08:39:22Z,42.805,6.029,13.2977,4.59986,2469.876,2019-9-21T10:39:46Z
2019-09-21T08:42:26Z,42.805,6.029,13.2983,4.59985,2469.937,2019-9-21T10:42:49Z
2019-09-21T08:45:29Z,42.805,6.029,13.2980,4.59980,2469.876,2019-9-21T10:45:52Z
2019-09-21T08:48:32Z,42.805,6.029,13.2971,4.59976,2469.89,2019-9-21T10:48:55Z
2019-09-21T08:51:35Z,42.805,6.029,13.2974,4.59979,2469.937,2019-9-21T10:51:59Z
2019-09-21T08:54:38Z,42.805,6.029,13.2978,4.59975,2469.9,2019-9-21T10:55:02Z
2019-09-21T08:57:42Z,42.805,6.029,13.2978,4.59974,2469.9,2019-9-21T10:58:05Z
2019-09-21T09:00:45Z,42.805,6.029,13.2998,4.59984,2469.914,2019-9-21T11:01:08Z
2019-09-21T09:03:48Z,42.805,6.029,13.2968,4.59984,2469.9,2019-9-21T11:04:11Z
2019-09-21T09:06:51Z,42.805,6.029,13.2969,4.59978,2469.89,2019-9-21T11:07:15Z
2019-09-21T09:09:54Z,42.805,6.029,13.2977,4.59984,2469.9,2019-9-21T11:10:18Z
2019-09-21T09:12:58Z,42.805,6.029,13.2979,4.59981,2469.876,2019-9-21T11:13:21Z
2019-09-21T09:16:01Z,42.805,6.029,13.2971,4.59973,2469.947,2019-9-21T11:16:24Z
2019-09-21T09:19:04Z,42.805,6.029,13.2969,4.59976,2469.89,2019-9-21T11:19:28Z
2019-09-21T09:22:07Z,42.805,6.029,13.2970,4.59986,2469.914,2019-9-21T11:22:31Z
2019-09-21T09:25:10Z,42.805,6.029,13.2979,4.59976,2469.914,2019-9-21T11:25:34Z
2019-09-21T09:28:14Z,42.805,6.029,13.2981,4.59994,2469.923,2019-9-21T11:28:37Z
2019-09-21T09:31:17Z,42.805,6.029,13.2976,4.59981,2469.914,2019-9-21T11:31:40Z
2019-09-21T09:34:20Z,42.805,6.029,13.2982,4.59985,2469.923,2019-9-21T11:34:44Z
2019-09-21T09:37:23Z,42.805,6.029,13.2975,4.59984,2469.923,2019-9-21T11:37:47Z
2019-09-21T09:40:27Z,42.805,6.029,13.2980,4.59978,2469.9,2019-9-21T11:40:50Z
2019-09-21T09:43:30Z,42.805,6.029,13.2987,4.59974,2469.947,2019-9-21T11:43:53Z
2019-09-21T09:46:33Z,42.805,6.029,13.2974,4.59967,2469.923,2019-9-21T11:46:57Z
2019-09-21T09:49:36Z,42.805,6.029,13.2971,4.59978,2469.923,2019-9-21T11:50:00Z
2019-09-21T09:52:39Z,42.805,6.029,13.2974,4.59981,2469.923,2019-9-21T11:53:03Z
2019-09-21T09:55:43Z,42.805,6.029,13.2968,4.59986,2469.923,2019-9-21T11:56:06Z
2019-09-21T09:58:46Z,42.805,6.029,13.2974,4.59996,2469.923,2019-9-21T11:59:09Z
2019-09-21T10:01:49Z,42.805,6.029,13.2988,4.59986,2469.947,2019-9-21T12:02:13Z
2019-09-21T10:04:52Z,42.805,6.029,13.2985,4.59973,2469.923,2019-9-21T12:05:16Z
2019-09-21T10:07:55Z,42.805,6.029,13.2986,4.59977,2469.96,2019-9-21T12:08:19Z
2019-09-21T10:10:59Z,42.805,6.029,13.2990,4.59983,2469.97,2019-9-21T12:11:22Z
2019-09-21T10:14:02Z,42.805,6.029,13.2971,4.59977,2469.947,2019-9-21T12:14:25Z
2019-09-21T10:17:05Z,42.805,6.029,13.2971,4.59974,2469.96,2019-9-21T12:17:29Z
2019-09-21T10:20:08Z,42.805,6.029,13.2966,4.59971,2469.914,2019-9-21T12:20:32Z
2019-09-21T10:23:11Z,42.805,6.029,13.2973,4.60003,2469.947,2019-9-21T12:23:35Z
2019-09-21T10:26:15Z,42.805,6.029,13.2976,4.59984,2469.937,2019-9-21T12:26:38Z
2019-09-21T10:29:18Z,42.805,6.029,13.2969,4.59969,2469.9,2019-9-21T12:29:41Z
2019-09-21T10:32:21Z,42.805,6.029,13.2968,4.59984,2469.96,2019-9-21T12:32:45Z
2019-09-21T10:35:24Z,42.805,6.029,13.2976,4.59976,2469.96,2019-9-21T12:35:48Z
2019-09-21T10:38:27Z,42.805,6.029,13.2974,4.59976,2469.923,2019-9-21T12:38:51Z
2019-09-21T10:41:31Z,42.805,6.029,13.2977,4.59991,2469.923,2019-9-21T12:41:54Z
2019-09-21T10:44:34Z,42.805,6.029,13.2972,4.59968,2469.937,2019-9-21T12:44:58Z
2019-09-21T10:47:37Z,42.805,6.029,13.2972,4.59969,2469.937,2019-9-21T12:48:01Z
2019-09-21T10:50:40Z,42.805,6.029,13.2996,4.59973,2469.923,2019-9-21T12:51:04Z
2019-09-21T10:53:44Z,42.805,6.029,13.2976,4.59980,2469.96,2019-9-21T12:54:07Z
2019-09-21T10:56:47Z,42.805,6.029,13.2974,4.59988,2469.947,2019-9-21T12:57:10Z
2019-09-21T10:59:50Z,42.805,6.029,13.2983,4.59978,2469.937,2019-9-21T13:00:14Z
2019-09-21T11:02:53Z,42.805,6.029,13.2977,4.59990,2469.937,2019-9-21T13:03:17Z
2019-09-21T11:05:57Z,42.805,6.029,13.2969,4.59982,2469.96,2019-9-21T13:06:20Z
2019-09-21T11:09:00Z,42.805,6.029,13.2983,4.59968,2469.923,2019-9-21T13:09:23Z
2019-09-21T11:12:03Z,42.805,6.029,13.2967,4.59980,2469.937,2019-9-21T13:12:27Z
2019-09-21T11:15:06Z,42.805,6.029,13.2988,4.59976,2469.9,2019-9-21T13:15:30Z
2019-09-21T11:18:10Z,42.805,6.029,13.2978,4.59983,2469.947,2019-9-21T13:18:33Z
2019-09-21T11:21:13Z,42.805,6.029,13.2974,4.59999,2469.947,2019-9-21T13:21:36Z
2019-09-21T11:24:16Z,42.805,6.029,13.2971,4.59981,2469.947,2019-9-21T13:24:40Z
2019-09-21T11:27:19Z,42.805,6.029,13.2967,4.59973,2469.947,2019-9-21T13:27:43Z
2019-09-21T11:30:22Z,42.805,6.029,13.2976,4.59980,2469.947,2019-9-21T13:30:46Z
2019-09-21T11:33:26Z,42.805,6.029,13.2968,4.60003,2469.923,2019-9-21T13:33:49Z
2019-09-21T11:36:29Z,42.805,6.029,13.2967,4.59989,2469.984,2019-9-21T13:36:53Z
2019-09-21T11:39:32Z,42.805,6.029,13.2970,4.59993,2469.96,2019-9-21T13:39:56Z
2019-09-21T11:42:36Z,42.805,6.029,13.2977,4.59975,2469.984,2019-9-21T13:42:59Z
2019-09-21T11:45:39Z,42.805,6.029,13.2971,4.59976,2469.96,2019-9-21T13:46:02Z
2019-09-21T11:48:42Z,42.805,6.029,13.2974,4.59980,2469.947,2019-9-21T13:49:06Z
2019-09-21T11:51:45Z,42.805,6.029,13.2962,4.59990,2469.97,2019-9-21T13:52:09Z
2019-09-21T11:54:48Z,42.805,6.029,13.2971,4.59988,2469.947,2019-9-21T13:55:12Z
2019-09-21T11:57:52Z,42.805,6.029,13.2968,4.59987,2469.96,2019-9-21T13:58:15Z
2019-09-21T12:00:55Z,42.805,6.029,13.2983,4.59984,2469.937,2019-9-21T14:01:18Z
2019-09-21T12:03:58Z,42.805,6.029,13.2985,4.59988,2469.923,2019-9-21T14:04:22Z
2019-09-21T12:07:01Z,42.805,6.029,13.2986,4.59977,2469.947,2019-9-21T14:07:25Z
2019-09-21T12:10:05Z,42.805,6.029,13.2970,4.59984,2469.947,2019-9-21T14:10:28Z
2019-09-21T12:13:08Z,42.805,6.029,13.2976,4.59984,2469.937,2019-9-21T14:13:31Z
2019-09-21T12:16:11Z,42.805,6.029,13.2974,4.59999,2469.947,2019-9-21T14:16:35Z
2019-09-21T12:19:14Z,42.805,6.029,13.2974,4.59991,2469.923,2019-9-21T14:19:38Z
2019-09-21T12:22:17Z,42.805,6.029,13.2976,4.59982,2469.947,2019-9-21T14:22:41Z
2019-09-21T12:25:21Z,42.805,6.029,13.2985,4.59976,2469.947,2019-9-21T14:25:44Z
2019-09-21T12:28:24Z,42.805,6.029,13.2983,4.59981,2469.96,2019-9-21T14:28:48Z
2019-09-21T12:31:28Z,42.805,6.029,13.2971,4.59986,2469.937,2019-9-21T14:31:51Z
2019-09-21T12:34:31Z,42.805,6.029,13.2975,4.59962,2469.923,2019-9-21T14:34:54Z
2019-09-21T12:37:34Z,42.805,6.029,13.2974,4.59968,2469.923,2019-9-21T14:37:58Z
2019-09-21T12:40:37Z,42.805,6.029,13.2971,4.59982,2469.947,2019-9-21T14:41:01Z
2019-09-21T12:43:40Z,42.805,6.029,13.2979,4.59985,2469.947,2019-9-21T14:44:04Z
2019-09-21T12:46:44Z,42.805,6.029,13.2998,4.59984,2469.923,2019-9-21T14:47:07Z
2019-09-21T12:49:47Z,42.805,6.029,13.2986,4.59965,2469.947,2019-9-21T14:50:10Z
2019-09-21T12:52:50Z,42.805,6.029,13.2966,4.59986,2469.923,2019-9-21T14:53:14Z
2019-09-21T12:55:54Z,42.805,6.029,13.2967,4.59980,2469.923,2019-9-21T14:56:17Z
2019-09-21T12:58:57Z,42.805,6.029,13.2977,4.59979,2469.937,2019-9-21T14:59:20Z
2019-09-21T13:02:00Z,42.805,6.029,13.2984,4.59977,2469.923,2019-9-21T15:02:24Z
2019-09-21T13:05:03Z,42.805,6.029,13.2979,4.59976,2469.947,2019-9-21T15:05:27Z
2019-09-21T13:08:06Z,42.805,6.029,13.2982,4.59998,2469.947,2019-9-21T15:08:30Z
2019-09-21T13:11:10Z,42.805,6.029,13.2985,4.60023,2469.947,2019-9-21T15:11:33Z
2019-09-21T13:14:13Z,42.805,6.029,13.2971,4.59991,2469.947,2019-9-21T15:14:36Z
2019-09-21T13:17:16Z,42.805,6.029,13.2996,4.59981,2469.923,2019-9-21T15:17:39Z
2019-09-21T13:20:19Z,42.805,6.029,13.2978,4.59971,2469.9,2019-9-21T15:20:43Z
2019-09-21T13:23:22Z,42.805,6.029,13.2988,4.59998,2469.914,2019-9-21T15:23:46Z
2019-09-21T13:26:26Z,42.805,6.029,13.2979,4.60000,2469.96,2019-9-21T15:26:49Z
2019-09-21T13:29:29Z,42.805,6.029,13.2980,4.59990,2469.947,2019-9-21T15:29:52Z
2019-09-21T13:32:32Z,42.805,6.029,13.2986,4.59980,2469.923,2019-9-21T15:32:56Z
2019-09-21T13:35:35Z,42.805,6.029,13.2975,4.59997,2469.947,2019-9-21T15:35:59Z
2019-09-21T13:38:39Z,42.805,6.029,13.2967,4.60002,2469.947,2019-9-21T15:39:02Z
2019-09-21T13:41:42Z,42.805,6.029,13.2975,4.59994,2469.96,2019-9-21T15:42:05Z
2019-09-21T13:44:45Z,42.805,6.029,13.3022,4.59981,2469.97,2019-9-21T15:45:09Z
2019-09-21T13:47:48Z,42.805,6.029,13.2982,4.59986,2469.937,2019-9-21T15:48:12Z
2019-09-21T13:50:51Z,42.805,6.029,13.2978,4.59990,2469.937,2019-9-21T15:51:15Z
2019-09-21T13:53:55Z,42.805,6.029,13.2979,4.60011,2469.914,2019-9-21T15:54:18Z
2019-09-21T13:56:58Z,42.805,6.029,13.2986,4.59981,2469.9,2019-9-21T15:57:21Z
2019-09-21T14:00:01Z,42.805,6.029,13.3015,4.59980,2469.914,2019-9-21T16:00:25Z
2019-09-21T14:03:04Z,42.805,6.029,13.2995,4.59976,2469.937,2019-9-21T16:03:28Z
2019-09-21T14:06:07Z,42.805,6.029,13.2984,4.59988,2469.937,2019-9-21T16:06:31Z
2019-09-21T14:09:11Z,42.805,6.029,13.2986,4.59979,2469.937,2019-9-21T16:09:34Z
2019-09-21T14:12:14Z,42.805,6.029,13.2986,4.60005,2469.937,2019-9-21T16:12:37Z
2019-09-21T14:15:17Z,42.805,6.029,13.2988,4.60005,2469.984,2019-9-21T16:15:40Z
2019-09-21T14:18:20Z,42.805,6.029,13.3014,4.60005,2469.89,2019-9-21T16:18:44Z
2019-09-21T14:21:23Z,42.805,6.029,13.2987,4.60015,2469.937,2019-9-21T16:21:47Z
2019-09-21T14:24:27Z,42.805,6.029,13.2985,4.59992,2469.923,2019-9-21T16:24:50Z
2019-09-21T14:27:30Z,42.805,6.029,13.2968,4.60016,2469.937,2019-9-21T16:27:53Z
2019-09-21T14:30:33Z,42.805,6.029,13.2994,4.60015,2469.947,2019-9-21T16:30:57Z
2019-09-21T14:33:36Z,42.805,6.029,13.2995,4.59996,2469.96,2019-9-21T16:34:00Z
2019-09-21T14:36:40Z,42.805,6.029,13.3004,4.59998,2469.937,2019-9-21T16:37:03Z
2019-09-21T14:39:43Z,42.805,6.029,13.2990,4.60003,2469.9,2019-9-21T16:40:06Z
2019-09-21T14:42:46Z,42.805,6.029,13.2996,4.59993,2469.9,2019-9-21T16:43:09Z
2019-09-21T14:45:49Z,42.805,6.029,13.2979,4.59975,2469.9,2019-9-21T16:46:13Z
2019-09-21T14:48:52Z,42.805,6.029,13.2979,4.59997,2469.914,2019-9-21T16:49:16Z
2019-09-21T14:51:56Z,42.805,6.029,13.2998,4.60017,2469.923,2019-9-21T16:52:19Z
2019-09-21T14:54:59Z,42.805,6.029,13.2994,4.59979,2469.9,2019-9-21T16:55:22Z
2019-09-21T14:58:02Z,42.805,6.029,13.3003,4.59982,2469.89,2019-9-21T16:58:26Z
2019-09-21T15:01:05Z,42.805,6.029,13.2989,4.59970,2469.937,2019-9-21T17:01:29Z
2019-09-21T15:04:08Z,42.805,6.029,13.3003,4.59976,2469.914,2019-9-21T17:04:32Z
2019-09-21T15:07:11Z,42.805,6.029,13.2986,4.60001,2469.914,2019-9-21T17:07:35Z
2019-09-21T15:10:15Z,42.805,6.029,13.2982,4.60010,2469.9,2019-9-21T17:10:38Z
2019-09-21T15:13:18Z,42.805,6.029,13.2990,4.59996,2469.9,2019-9-21T17:13:41Z